Location: Fornova de Taro
(44.7000°N, 10.1000°E)
Time: 22:22:27
(UTC+00:00)

Cosmos 407 Rocket - Pass Details

Date: 26 May 2022
Orbit: 743 x 786 km, 74.0° (Epoch: 03 July)

Event Time Altitude Azimuth Distance (km) Brightness Sun altitude
Rises 02:45:40 0° 336° (NNW) 3,280 7.0 -8.8°
Reaches altitude 10° 02:48:05 10° 334° (NNW) 2,343 6.2 -8.5°
Maximum altitude 02:53:21 67° 253° (WSW) 843 3.5 -7.7°
Drops below altitude 10° 02:58:32 10° 172° (S) 2,302 5.7 -7.0°
Sets 03:00:54 0° 169° (S) 3,217 6.4 -6.7°
